Year,Month,Day,Hour,Minute,Value (Times are PST for temperature in C)
2018,07,07,00,00,17.50
2018,07,07,00,01,17.50
2018,07,07,00,02,17.50
2018,07,07,00,03,17.50
2018,07,07,00,04,17.50
2018,07,07,00,05,17.40
2018,07,07,00,06,17.40
2018,07,07,00,07,17.40
2018,07,07,00,08,17.40
2018,07,07,00,09,17.40
2018,07,07,00,10,17.30
2018,07,07,00,11,17.30
2018,07,07,00,12,17.20
2018,07,07,00,13,17.10
2018,07,07,00,14,17.10
2018,07,07,00,15,17.10
2018,07,07,00,16,17.00
2018,07,07,00,17,17.00
2018,07,07,00,18,16.90
2018,07,07,00,19,16.90
2018,07,07,00,20,16.90
2018,07,07,00,21,16.80
2018,07,07,00,22,16.80
2018,07,07,00,23,16.80
2018,07,07,00,24,16.70
2018,07,07,00,25,16.70
2018,07,07,00,26,16.70
2018,07,07,00,27,16.60
2018,07,07,00,28,16.60
2018,07,07,00,29,16.60
2018,07,07,00,30,16.50
2018,07,07,00,31,16.50
2018,07,07,00,32,16.50
2018,07,07,00,33,16.40
2018,07,07,00,34,16.40
2018,07,07,00,35,16.40
2018,07,07,00,36,16.40
2018,07,07,00,37,16.40
2018,07,07,00,38,16.40
2018,07,07,00,39,16.50
2018,07,07,00,40,16.50
2018,07,07,00,41,16.50
2018,07,07,00,42,16.60
2018,07,07,00,43,16.60
2018,07,07,00,44,16.60
2018,07,07,00,45,16.60
2018,07,07,00,46,16.60
2018,07,07,00,47,16.70
2018,07,07,00,48,16.70
2018,07,07,00,49,16.60
2018,07,07,00,50,16.60
2018,07,07,00,51,16.60
2018,07,07,00,52,16.60
2018,07,07,00,53,16.60
2018,07,07,00,54,16.60
2018,07,07,00,55,16.60
2018,07,07,00,56,16.60
2018,07,07,00,57,16.60
2018,07,07,00,58,16.60
2018,07,07,00,59,16.60
2018,07,07,01,00,16.60
2018,07,07,01,01,16.60
2018,07,07,01,02,16.60
2018,07,07,01,03,16.50
2018,07,07,01,04,16.50
2018,07,07,01,05,16.50
2018,07,07,01,06,16.40
2018,07,07,01,07,16.40
2018,07,07,01,08,16.40
2018,07,07,01,09,16.40
2018,07,07,01,10,16.40
2018,07,07,01,11,16.40
2018,07,07,01,12,16.50
2018,07,07,01,13,16.50
2018,07,07,01,14,16.50
2018,07,07,01,15,16.50
2018,07,07,01,16,16.60
2018,07,07,01,17,16.60
2018,07,07,01,18,16.60
2018,07,07,01,19,16.70
2018,07,07,01,20,16.70
2018,07,07,01,21,16.70
2018,07,07,01,22,16.70
2018,07,07,01,23,16.80
2018,07,07,01,24,16.80
2018,07,07,01,25,16.80
2018,07,07,01,26,16.80
2018,07,07,01,27,16.80
2018,07,07,01,28,16.80
2018,07,07,01,29,16.80
2018,07,07,01,30,16.80
2018,07,07,01,31,16.80
2018,07,07,01,32,16.80
2018,07,07,01,33,16.90
2018,07,07,01,34,16.90
2018,07,07,01,35,16.90
2018,07,07,01,36,16.90
2018,07,07,01,37,16.90
2018,07,07,01,38,16.90
2018,07,07,01,39,16.90
2018,07,07,01,40,16.90
2018,07,07,01,41,16.90
2018,07,07,01,42,16.90
2018,07,07,01,43,16.90
2018,07,07,01,44,16.90
2018,07,07,01,45,16.90
2018,07,07,01,46,16.80
2018,07,07,01,47,16.80
2018,07,07,01,48,16.80
2018,07,07,01,49,16.70
2018,07,07,01,50,16.70
2018,07,07,01,51,16.60
2018,07,07,01,52,16.50
2018,07,07,01,53,16.50
2018,07,07,01,54,16.40
2018,07,07,01,55,16.40
2018,07,07,01,56,16.30
2018,07,07,01,57,16.30
2018,07,07,01,58,16.20
2018,07,07,01,59,16.20
2018,07,07,02,00,16.20
2018,07,07,02,01,16.10
2018,07,07,02,02,16.10
2018,07,07,02,03,16.10
2018,07,07,02,04,16.10
2018,07,07,02,05,16.10
2018,07,07,02,06,16.10
2018,07,07,02,07,16.00
2018,07,07,02,08,16.00
2018,07,07,02,09,16.00
2018,07,07,02,10,16.00
2018,07,07,02,11,15.90
2018,07,07,02,12,15.90
2018,07,07,02,13,15.90
2018,07,07,02,14,15.90
2018,07,07,02,15,15.80
2018,07,07,02,16,15.80
2018,07,07,02,17,15.80
2018,07,07,02,18,15.80
2018,07,07,02,19,15.80
2018,07,07,02,20,15.80
2018,07,07,02,21,15.80
2018,07,07,02,22,15.80
2018,07,07,02,23,15.80
2018,07,07,02,24,15.80
2018,07,07,02,25,15.80
2018,07,07,02,26,15.80
2018,07,07,02,27,15.80
2018,07,07,02,28,15.80
2018,07,07,02,29,15.90
2018,07,07,02,30,15.90
2018,07,07,02,31,15.90
2018,07,07,02,32,15.90
2018,07,07,02,33,15.90
2018,07,07,02,34,15.80
2018,07,07,02,35,15.80
2018,07,07,02,36,15.80
2018,07,07,02,37,15.80
2018,07,07,02,38,15.80
2018,07,07,02,39,15.80
2018,07,07,02,40,15.90
2018,07,07,02,41,15.90
2018,07,07,02,42,15.90
2018,07,07,02,43,15.90
2018,07,07,02,44,15.90
2018,07,07,02,45,15.90
2018,07,07,02,46,15.90
2018,07,07,02,47,16.00
2018,07,07,02,48,15.90
2018,07,07,02,49,15.90
2018,07,07,02,50,15.90
2018,07,07,02,51,15.90
2018,07,07,02,52,15.90
2018,07,07,02,53,15.90
2018,07,07,02,54,15.80
2018,07,07,02,55,15.80
2018,07,07,02,56,15.70
2018,07,07,02,57,15.70
2018,07,07,02,58,15.60
2018,07,07,02,59,15.60
2018,07,07,03,00,15.50
2018,07,07,03,01,15.50
2018,07,07,03,02,15.40
2018,07,07,03,06,15.20
2018,07,07,03,07,15.20
2018,07,07,03,08,15.10
2018,07,07,03,09,15.10
2018,07,07,03,10,15.10
2018,07,07,03,11,15.10
2018,07,07,03,12,15.00
2018,07,07,03,13,15.00
2018,07,07,03,14,15.00
2018,07,07,03,15,15.00
2018,07,07,03,16,14.90
2018,07,07,03,17,14.90
2018,07,07,03,18,14.90
2018,07,07,03,19,14.90
2018,07,07,03,20,14.90
2018,07,07,03,21,14.90
2018,07,07,03,22,14.90
2018,07,07,03,23,14.90
2018,07,07,03,24,14.80
2018,07,07,03,25,14.80
2018,07,07,03,26,14.80
2018,07,07,03,27,14.80
2018,07,07,03,28,14.70
2018,07,07,03,29,14.70
2018,07,07,03,30,14.70
2018,07,07,03,31,14.70
2018,07,07,03,32,14.70
2018,07,07,03,33,14.60
2018,07,07,03,34,14.60
2018,07,07,03,35,14.60
2018,07,07,03,36,14.60
2018,07,07,03,37,14.60
2018,07,07,03,38,14.60
2018,07,07,03,39,14.60
2018,07,07,03,40,14.60
2018,07,07,03,41,14.60
2018,07,07,03,42,14.60
2018,07,07,03,43,14.50
2018,07,07,03,44,14.50
2018,07,07,03,45,14.50
2018,07,07,03,46,14.50
2018,07,07,03,47,14.50
2018,07,07,03,48,14.50
2018,07,07,03,49,14.40
2018,07,07,03,50,14.40
2018,07,07,03,51,14.40
2018,07,07,03,52,14.40
2018,07,07,03,53,14.40
2018,07,07,03,54,14.40
2018,07,07,03,55,14.40
2018,07,07,03,56,14.40
2018,07,07,03,57,14.40
2018,07,07,03,58,14.40
2018,07,07,03,59,14.40
2018,07,07,04,00,14.40
2018,07,07,04,01,14.30
2018,07,07,04,02,14.30
2018,07,07,04,03,14.30
2018,07,07,04,04,14.30
2018,07,07,04,05,14.30
2018,07,07,04,06,14.30
2018,07,07,04,07,14.30
2018,07,07,04,08,14.30
2018,07,07,04,09,14.30
2018,07,07,04,10,14.30
2018,07,07,04,11,14.30
2018,07,07,04,12,14.20
2018,07,07,04,13,14.20
2018,07,07,04,14,14.20
2018,07,07,04,15,14.20
2018,07,07,04,16,14.20
2018,07,07,04,17,14.20
2018,07,07,04,18,14.20
2018,07,07,04,19,14.20
2018,07,07,04,20,14.20
2018,07,07,04,21,14.20
2018,07,07,04,22,14.20
2018,07,07,04,23,14.20
2018,07,07,04,24,14.20
2018,07,07,04,25,14.20
2018,07,07,04,26,14.20
2018,07,07,04,27,14.20
2018,07,07,04,28,14.20
2018,07,07,04,29,14.20
2018,07,07,04,30,14.20
2018,07,07,04,31,14.20
2018,07,07,04,32,14.10
2018,07,07,04,33,14.10
2018,07,07,04,34,14.10
2018,07,07,04,35,14.10
2018,07,07,04,36,14.10
2018,07,07,04,37,14.10
2018,07,07,04,38,14.10
2018,07,07,04,39,14.10
2018,07,07,04,40,14.10
2018,07,07,04,41,14.10
2018,07,07,04,42,14.10
2018,07,07,04,43,14.00
2018,07,07,04,44,14.00
2018,07,07,04,45,14.00
2018,07,07,04,46,14.00
2018,07,07,04,47,14.00
2018,07,07,04,48,14.00
2018,07,07,04,49,14.10
2018,07,07,04,50,14.10
2018,07,07,04,51,14.10
2018,07,07,04,52,14.10
2018,07,07,04,53,14.10
2018,07,07,04,54,14.10
2018,07,07,04,55,14.10
2018,07,07,04,56,14.10
2018,07,07,04,57,14.10
2018,07,07,04,58,14.10
2018,07,07,04,59,14.10
2018,07,07,05,00,14.10
2018,07,07,05,01,14.10
2018,07,07,05,02,14.10
2018,07,07,05,03,14.10
2018,07,07,05,04,14.10
2018,07,07,05,05,14.10
2018,07,07,05,06,14.10
2018,07,07,05,07,14.10
2018,07,07,05,08,14.10
2018,07,07,05,09,14.10
2018,07,07,05,10,14.10
2018,07,07,05,11,14.10
2018,07,07,05,12,14.10
2018,07,07,05,13,14.10
2018,07,07,05,14,14.10
2018,07,07,05,15,14.10
2018,07,07,05,16,14.10
2018,07,07,05,17,14.10
2018,07,07,05,18,14.10
2018,07,07,05,19,14.10
2018,07,07,05,20,14.10
2018,07,07,05,21,14.10
2018,07,07,05,22,14.10
2018,07,07,05,23,14.10
2018,07,07,05,24,14.00
2018,07,07,05,25,14.00
2018,07,07,05,26,14.00
2018,07,07,05,27,14.00
2018,07,07,05,28,14.00
2018,07,07,05,29,14.00
2018,07,07,05,30,14.00
2018,07,07,05,31,14.00
2018,07,07,05,32,14.00
2018,07,07,05,33,14.00
2018,07,07,05,34,13.90
2018,07,07,05,35,13.90
2018,07,07,05,36,13.90
2018,07,07,05,37,13.90
2018,07,07,05,38,13.90
2018,07,07,05,39,13.90
2018,07,07,05,40,13.90
2018,07,07,05,41,13.90
2018,07,07,05,42,13.90
2018,07,07,05,43,13.90
2018,07,07,05,44,13.90
2018,07,07,05,45,13.90
2018,07,07,05,46,13.90
2018,07,07,05,47,13.90
2018,07,07,05,48,13.90
2018,07,07,05,49,13.90
2018,07,07,05,50,13.90
2018,07,07,05,51,13.90
2018,07,07,05,52,13.90
2018,07,07,05,53,13.90
2018,07,07,05,54,13.90
2018,07,07,05,55,13.90
2018,07,07,05,56,13.90
2018,07,07,05,57,13.90
2018,07,07,05,58,13.90
2018,07,07,05,59,13.90
2018,07,07,06,00,13.90
2018,07,07,06,01,13.90
2018,07,07,06,02,13.90
2018,07,07,06,03,13.90
2018,07,07,06,04,13.90
2018,07,07,06,05,13.90
2018,07,07,06,06,13.90
2018,07,07,06,07,13.90
2018,07,07,06,08,13.90
2018,07,07,06,09,13.90
2018,07,07,06,10,13.90
2018,07,07,06,11,13.90
2018,07,07,06,12,13.90
2018,07,07,06,13,13.90
2018,07,07,06,14,14.00
2018,07,07,06,15,14.00
2018,07,07,06,16,14.00
2018,07,07,06,17,14.00
2018,07,07,06,18,14.00
2018,07,07,06,19,14.00
2018,07,07,06,20,14.00
2018,07,07,06,21,14.00
2018,07,07,06,22,14.00
2018,07,07,06,23,14.10
2018,07,07,06,24,14.10
2018,07,07,06,25,14.10
2018,07,07,06,26,14.10
2018,07,07,06,27,14.10
2018,07,07,06,28,14.10
2018,07,07,06,29,14.10
2018,07,07,06,30,14.20
2018,07,07,06,31,14.20
2018,07,07,06,32,14.20
2018,07,07,06,33,14.20
2018,07,07,06,34,14.20
2018,07,07,06,35,14.20
2018,07,07,06,36,14.30
2018,07,07,06,37,14.30
2018,07,07,06,38,14.30
2018,07,07,06,39,14.30
2018,07,07,06,40,14.30
2018,07,07,06,41,14.30
2018,07,07,06,42,14.40
2018,07,07,06,43,14.40
2018,07,07,06,44,14.40
2018,07,07,06,45,14.40
2018,07,07,06,46,14.40
2018,07,07,06,47,14.50
2018,07,07,06,48,14.50
2018,07,07,06,49,14.50
2018,07,07,06,50,14.60
2018,07,07,06,51,14.60
2018,07,07,06,52,14.60
2018,07,07,06,53,14.60
2018,07,07,06,54,14.60
2018,07,07,06,55,14.60
2018,07,07,06,56,14.70
2018,07,07,06,57,14.70
2018,07,07,06,58,14.70
2018,07,07,06,59,14.70
2018,07,07,07,00,14.70
2018,07,07,07,01,14.70
2018,07,07,07,02,14.70
2018,07,07,07,03,14.70
2018,07,07,07,04,14.70
2018,07,07,07,05,14.70
2018,07,07,07,06,14.80
2018,07,07,07,07,14.80
2018,07,07,07,08,14.80
2018,07,07,07,09,14.80
2018,07,07,07,10,14.80
2018,07,07,07,11,14.80
2018,07,07,07,12,14.80
2018,07,07,07,13,14.90
2018,07,07,07,14,14.90
2018,07,07,07,15,14.90
2018,07,07,07,16,14.90
2018,07,07,07,17,14.90
2018,07,07,07,18,14.90
2018,07,07,07,19,14.90
2018,07,07,07,20,15.00
2018,07,07,07,21,15.00
2018,07,07,07,22,15.00
2018,07,07,07,23,15.00
2018,07,07,07,24,15.00
2018,07,07,07,25,15.00
2018,07,07,07,26,15.00
2018,07,07,07,27,15.00
2018,07,07,07,28,15.10
2018,07,07,07,29,15.10
2018,07,07,07,30,15.10
2018,07,07,07,31,15.10
2018,07,07,07,32,15.10
2018,07,07,07,33,15.10
2018,07,07,07,34,15.10
2018,07,07,07,35,15.10
2018,07,07,07,36,15.10
2018,07,07,07,37,15.20
2018,07,07,07,38,15.20
2018,07,07,07,39,15.20
2018,07,07,07,40,15.20
2018,07,07,07,41,15.20
2018,07,07,07,42,15.20
2018,07,07,07,43,15.20
2018,07,07,07,44,15.30
2018,07,07,07,45,15.30
2018,07,07,07,46,15.30
2018,07,07,07,47,15.40
2018,07,07,07,48,15.40
2018,07,07,07,49,15.50
2018,07,07,07,50,15.50
2018,07,07,07,51,15.60
2018,07,07,07,52,15.60
2018,07,07,07,53,15.70
2018,07,07,07,54,15.70
2018,07,07,07,55,15.70
2018,07,07,07,56,15.80
2018,07,07,07,57,15.80
2018,07,07,07,58,15.90
2018,07,07,07,59,15.90
2018,07,07,08,00,15.90
2018,07,07,08,01,16.00
2018,07,07,08,02,16.10
2018,07,07,08,03,16.10
2018,07,07,08,04,16.10
2018,07,07,08,05,16.20
2018,07,07,08,06,16.20
2018,07,07,08,07,16.20
2018,07,07,08,08,16.30
2018,07,07,08,09,16.30
2018,07,07,08,10,16.40
2018,07,07,08,11,16.50
2018,07,07,08,12,16.60
2018,07,07,08,13,16.70
2018,07,07,08,14,16.70
2018,07,07,08,15,16.80
2018,07,07,08,16,16.80
2018,07,07,08,17,16.90
2018,07,07,08,18,16.90
2018,07,07,08,19,17.00
2018,07,07,08,20,17.00
2018,07,07,08,21,17.00
2018,07,07,08,22,17.10
2018,07,07,08,23,17.10
2018,07,07,08,24,17.20
2018,07,07,08,25,17.20
2018,07,07,08,26,17.20
2018,07,07,08,27,17.30
2018,07,07,08,28,17.30
2018,07,07,08,29,17.30
2018,07,07,08,30,17.30
2018,07,07,08,31,17.30
2018,07,07,08,32,17.40
2018,07,07,08,33,17.50
2018,07,07,08,34,17.50
2018,07,07,08,35,17.60
2018,07,07,08,36,17.60
2018,07,07,08,37,17.60
2018,07,07,08,38,17.60
2018,07,07,08,39,17.50
2018,07,07,08,40,17.50
2018,07,07,08,41,17.50
2018,07,07,08,42,17.40
2018,07,07,08,43,17.40
2018,07,07,08,44,17.30
2018,07,07,08,45,17.20
2018,07,07,08,46,17.20
2018,07,07,08,47,17.10
2018,07,07,08,48,17.10
2018,07,07,08,49,17.10
2018,07,07,08,50,17.00
2018,07,07,08,51,17.10
2018,07,07,08,52,17.10
2018,07,07,08,53,17.10
2018,07,07,08,54,17.10
2018,07,07,08,55,17.10
2018,07,07,08,56,17.10
2018,07,07,08,57,17.10
2018,07,07,08,58,17.10
2018,07,07,08,59,17.10
2018,07,07,09,00,17.20
2018,07,07,09,01,17.20
2018,07,07,09,02,17.20
2018,07,07,09,03,17.20
2018,07,07,09,04,17.30
2018,07,07,09,05,17.30
2018,07,07,09,06,17.30
2018,07,07,09,07,17.30
2018,07,07,09,08,17.30
2018,07,07,09,09,17.30
2018,07,07,09,10,17.40
2018,07,07,09,11,17.40
2018,07,07,09,12,17.40
2018,07,07,09,13,17.40
2018,07,07,09,14,17.40
2018,07,07,09,15,17.30
2018,07,07,09,16,17.30
2018,07,07,09,17,17.20
2018,07,07,09,18,17.20
2018,07,07,09,19,17.10
2018,07,07,09,20,17.10
2018,07,07,09,21,17.10
2018,07,07,09,22,17.10
2018,07,07,09,23,17.10
2018,07,07,09,24,17.10
2018,07,07,09,25,17.20
2018,07,07,09,26,17.20
2018,07,07,09,27,17.20
2018,07,07,09,28,17.20
2018,07,07,09,29,17.30
2018,07,07,09,30,17.30
2018,07,07,09,31,17.30
2018,07,07,09,32,17.30
2018,07,07,09,33,17.30
2018,07,07,09,34,17.30
2018,07,07,09,35,17.30
2018,07,07,09,36,17.30
2018,07,07,09,37,17.30
2018,07,07,09,38,17.30
2018,07,07,09,39,17.20
2018,07,07,09,40,17.20
2018,07,07,09,41,17.10
2018,07,07,09,42,17.10
2018,07,07,09,43,17.10
2018,07,07,09,44,17.10
2018,07,07,09,45,17.00
2018,07,07,09,46,17.00
2018,07,07,09,47,17.00
2018,07,07,09,48,17.00
2018,07,07,09,49,17.00
2018,07,07,09,50,17.00
2018,07,07,09,51,17.00
2018,07,07,09,52,17.00
2018,07,07,09,53,16.90
2018,07,07,09,54,16.90
2018,07,07,09,55,16.90
2018,07,07,09,56,16.90
2018,07,07,09,57,16.90
2018,07,07,09,58,16.90
2018,07,07,09,59,16.90
2018,07,07,10,00,16.90
2018,07,07,10,01,17.00
2018,07,07,10,02,17.10
2018,07,07,10,03,17.10
2018,07,07,10,04,17.10
2018,07,07,10,05,17.10
2018,07,07,10,06,17.10
2018,07,07,10,07,17.10
2018,07,07,10,08,17.10
2018,07,07,10,09,17.00
2018,07,07,10,10,17.00
2018,07,07,10,11,16.90
2018,07,07,10,12,16.90
2018,07,07,10,13,16.90
2018,07,07,10,14,16.90
2018,07,07,10,15,16.90
2018,07,07,10,16,16.90
2018,07,07,10,17,16.90
2018,07,07,10,18,16.90
2018,07,07,10,19,16.90
2018,07,07,10,20,16.90
2018,07,07,10,21,16.90
2018,07,07,10,22,16.90
2018,07,07,10,23,16.90
2018,07,07,10,24,16.90
2018,07,07,10,25,16.90
2018,07,07,10,26,17.00
2018,07,07,10,27,17.00
2018,07,07,10,28,17.00
2018,07,07,10,29,17.00
2018,07,07,10,30,17.00
2018,07,07,10,31,17.00
2018,07,07,10,32,17.00
2018,07,07,10,33,17.00
2018,07,07,10,34,17.00
2018,07,07,10,35,17.00
2018,07,07,10,36,17.00
2018,07,07,10,37,17.00
2018,07,07,10,38,17.00
2018,07,07,10,39,17.00
2018,07,07,10,40,17.00
2018,07,07,10,41,17.00
2018,07,07,10,42,17.00
2018,07,07,10,43,17.00
2018,07,07,10,44,17.00
2018,07,07,10,45,17.00
2018,07,07,10,46,17.00
2018,07,07,10,47,17.00
2018,07,07,10,48,17.00
2018,07,07,10,49,17.00
2018,07,07,10,50,17.00
2018,07,07,10,51,16.90
2018,07,07,10,52,16.90
2018,07,07,10,53,16.90
2018,07,07,10,54,16.90
2018,07,07,10,55,16.90
2018,07,07,10,56,16.90
2018,07,07,10,57,16.90
2018,07,07,10,58,16.90
2018,07,07,10,59,16.90
2018,07,07,11,00,16.90
2018,07,07,11,01,16.90
2018,07,07,11,02,16.90
2018,07,07,11,03,16.90
2018,07,07,11,04,16.90
2018,07,07,11,05,16.90
2018,07,07,11,06,16.90
2018,07,07,11,07,17.00
2018,07,07,11,08,17.00
2018,07,07,11,09,17.10
2018,07,07,11,10,17.10
2018,07,07,11,11,17.20
2018,07,07,11,12,17.20
2018,07,07,11,13,17.30
2018,07,07,11,14,17.40
2018,07,07,11,15,17.50
2018,07,07,11,16,17.60
2018,07,07,11,17,17.70
2018,07,07,11,18,17.70
2018,07,07,11,19,17.80
2018,07,07,11,20,17.80
2018,07,07,11,21,17.80
2018,07,07,11,22,17.80
2018,07,07,11,23,17.80
2018,07,07,11,24,17.80
2018,07,07,11,25,17.80
2018,07,07,11,26,17.80
2018,07,07,11,27,17.80
2018,07,07,11,28,17.80
2018,07,07,11,29,17.80
2018,07,07,11,30,17.80
2018,07,07,11,31,17.70
2018,07,07,11,32,17.70
2018,07,07,11,33,17.70
2018,07,07,11,34,17.70
2018,07,07,11,35,17.70
2018,07,07,11,36,17.70
2018,07,07,11,37,17.70
2018,07,07,11,38,17.70
2018,07,07,11,39,17.70
2018,07,07,11,40,17.80
2018,07,07,11,41,17.80
2018,07,07,11,42,17.90
2018,07,07,11,43,18.00
2018,07,07,11,44,18.10
2018,07,07,11,45,18.20
2018,07,07,11,46,18.30
2018,07,07,11,47,18.40
2018,07,07,11,48,18.40
2018,07,07,11,49,18.50
2018,07,07,11,50,18.60
2018,07,07,11,51,18.60
2018,07,07,11,52,18.60
2018,07,07,11,53,18.70
2018,07,07,11,54,18.70
2018,07,07,11,55,18.70
2018,07,07,11,56,18.70
2018,07,07,11,57,18.80
2018,07,07,11,58,18.80
2018,07,07,11,59,18.80
2018,07,07,12,00,18.80
2018,07,07,12,01,18.70
2018,07,07,12,02,18.70
2018,07,07,12,03,18.60
2018,07,07,12,04,18.50
2018,07,07,12,05,18.50
2018,07,07,12,06,18.30
2018,07,07,12,07,18.20
2018,07,07,12,08,18.10
2018,07,07,12,09,18.00
2018,07,07,12,10,17.90
2018,07,07,12,11,17.90
2018,07,07,12,12,17.80
2018,07,07,12,13,17.70
2018,07,07,12,14,17.70
2018,07,07,12,15,17.60
2018,07,07,12,16,17.50
2018,07,07,12,17,17.50
2018,07,07,12,18,17.40
2018,07,07,12,19,17.30
2018,07,07,12,20,17.30
2018,07,07,12,21,17.20
2018,07,07,12,22,17.20
2018,07,07,12,23,17.10
2018,07,07,12,24,17.10
2018,07,07,12,25,17.10
2018,07,07,12,26,17.00
2018,07,07,12,27,17.00
2018,07,07,12,28,17.00
2018,07,07,12,29,16.90
2018,07,07,12,30,16.90
2018,07,07,12,31,16.90
2018,07,07,12,32,16.90
2018,07,07,12,33,16.90
2018,07,07,12,34,16.90
2018,07,07,12,35,17.00
2018,07,07,12,36,17.00
2018,07,07,12,37,17.20
2018,07,07,12,38,17.30
2018,07,07,12,39,17.40
2018,07,07,12,40,17.50
2018,07,07,12,41,17.60
2018,07,07,12,42,17.70
2018,07,07,12,43,17.80
2018,07,07,12,44,17.90
2018,07,07,12,45,18.00
2018,07,07,12,46,18.10
2018,07,07,12,47,18.10
2018,07,07,12,48,18.20
2018,07,07,12,49,18.20
2018,07,07,12,50,18.30
2018,07,07,12,51,18.30
2018,07,07,12,52,18.40
2018,07,07,12,53,18.40
2018,07,07,12,54,18.40
2018,07,07,12,55,18.50
2018,07,07,12,56,18.50
2018,07,07,12,57,18.60
2018,07,07,12,58,18.60
2018,07,07,12,59,18.60
2018,07,07,13,00,18.70
2018,07,07,13,01,18.70
2018,07,07,13,02,18.80
2018,07,07,13,03,18.80
2018,07,07,13,04,18.90
2018,07,07,13,05,19.00
2018,07,07,13,06,19.10
2018,07,07,13,07,19.20
2018,07,07,13,08,19.30
2018,07,07,13,09,19.50
2018,07,07,13,10,19.60
2018,07,07,13,11,19.70
2018,07,07,13,12,19.80
2018,07,07,13,13,19.80
2018,07,07,13,14,19.90
2018,07,07,13,15,20.00
2018,07,07,13,16,20.00
2018,07,07,13,17,20.00
2018,07,07,13,18,20.10
2018,07,07,13,19,20.10
2018,07,07,13,20,20.10
2018,07,07,13,21,20.10
2018,07,07,13,22,20.00
2018,07,07,13,23,20.00
2018,07,07,13,24,20.00
2018,07,07,13,25,20.00
2018,07,07,13,26,20.00
2018,07,07,13,27,19.90
2018,07,07,13,28,19.90
2018,07,07,13,29,19.90
2018,07,07,13,30,19.90
2018,07,07,13,31,19.90
2018,07,07,13,32,19.80
2018,07,07,13,33,19.80
2018,07,07,13,34,19.70
2018,07,07,13,35,19.70
2018,07,07,13,36,19.60
2018,07,07,13,37,19.60
2018,07,07,13,38,19.50
2018,07,07,13,39,19.40
2018,07,07,13,40,19.30
2018,07,07,13,41,19.30
2018,07,07,13,42,19.20
2018,07,07,13,43,19.20
2018,07,07,13,44,19.20
2018,07,07,13,45,19.10
2018,07,07,13,46,19.10
2018,07,07,13,47,19.10
2018,07,07,13,48,19.00
2018,07,07,13,49,19.00
2018,07,07,13,50,18.90
2018,07,07,13,51,18.90
2018,07,07,13,52,18.90
2018,07,07,13,53,18.90
2018,07,07,13,54,18.80
2018,07,07,13,55,18.80
2018,07,07,13,56,18.80
2018,07,07,13,57,18.80
2018,07,07,13,58,18.80
2018,07,07,13,59,18.80
2018,07,07,14,00,18.80
2018,07,07,14,01,18.80
2018,07,07,14,02,18.80
2018,07,07,14,03,18.80
2018,07,07,14,04,18.80
2018,07,07,14,05,18.80
2018,07,07,14,06,18.80
2018,07,07,14,07,18.80
2018,07,07,14,08,18.80
2018,07,07,14,09,18.80
2018,07,07,14,10,18.80
2018,07,07,14,11,18.80
2018,07,07,14,12,18.70
2018,07,07,14,13,18.60
2018,07,07,14,14,18.60
2018,07,07,14,15,18.50
2018,07,07,14,16,18.40
2018,07,07,14,17,18.40
2018,07,07,14,18,18.40
2018,07,07,14,19,18.40
2018,07,07,14,20,18.40
2018,07,07,14,21,18.40
2018,07,07,14,22,18.40
2018,07,07,14,23,18.50
2018,07,07,14,24,18.60
2018,07,07,14,25,18.70
2018,07,07,14,26,18.80
2018,07,07,14,27,18.90
2018,07,07,14,28,19.00
2018,07,07,14,29,19.10
2018,07,07,14,30,19.20
2018,07,07,14,31,19.20
2018,07,07,14,32,19.30
2018,07,07,14,33,19.30
2018,07,07,14,34,19.30
2018,07,07,14,35,19.30
2018,07,07,14,36,19.30
2018,07,07,14,37,19.30
2018,07,07,14,38,19.30
2018,07,07,14,39,19.40
2018,07,07,14,40,19.40
2018,07,07,14,41,19.40
2018,07,07,14,42,19.40
2018,07,07,14,43,19.40
2018,07,07,14,44,19.40
2018,07,07,14,45,19.40
2018,07,07,14,46,19.40
2018,07,07,14,47,19.30
2018,07,07,14,48,19.40
2018,07,07,14,49,19.40
2018,07,07,14,50,19.30
2018,07,07,14,51,19.30
2018,07,07,14,52,19.30
2018,07,07,14,53,19.30
2018,07,07,14,54,19.30
2018,07,07,14,55,19.30
2018,07,07,14,56,19.30
2018,07,07,14,57,19.30
2018,07,07,14,58,19.30
2018,07,07,14,59,19.30
2018,07,07,15,00,19.30
2018,07,07,15,01,19.30
2018,07,07,15,02,19.30
2018,07,07,15,03,19.30
2018,07,07,15,04,19.30
2018,07,07,15,05,19.30
2018,07,07,15,06,19.20
2018,07,07,15,07,19.20
2018,07,07,15,08,19.20
2018,07,07,15,09,19.30
2018,07,07,15,10,19.30
2018,07,07,15,11,19.30
2018,07,07,15,12,19.20
2018,07,07,15,13,19.20
2018,07,07,15,14,19.20
2018,07,07,15,15,19.20
2018,07,07,15,16,19.20
2018,07,07,15,17,19.20
2018,07,07,15,18,19.20
2018,07,07,15,19,19.20
2018,07,07,15,20,19.20
2018,07,07,15,21,19.20
2018,07,07,15,22,19.20
2018,07,07,15,23,19.20
2018,07,07,15,24,19.10
2018,07,07,15,25,19.00
2018,07,07,15,26,19.00
2018,07,07,15,27,18.90
2018,07,07,15,28,18.90
2018,07,07,15,29,18.80
2018,07,07,15,30,18.80
2018,07,07,15,31,18.80
2018,07,07,15,32,18.70
2018,07,07,15,33,18.70
2018,07,07,15,34,18.60
2018,07,07,15,35,18.60
2018,07,07,15,36,18.60
2018,07,07,15,37,18.50
2018,07,07,15,38,18.50
2018,07,07,15,39,18.60
2018,07,07,15,40,18.60
2018,07,07,15,41,18.60
2018,07,07,15,42,18.60
2018,07,07,15,43,18.60
2018,07,07,15,44,18.70
2018,07,07,15,45,18.70
2018,07,07,15,46,18.70
2018,07,07,15,47,18.80
2018,07,07,15,48,18.80
2018,07,07,15,49,18.80
2018,07,07,15,50,18.80
2018,07,07,15,51,18.80
2018,07,07,15,52,18.90
2018,07,07,15,53,18.90
2018,07,07,15,54,19.00
2018,07,07,15,55,19.00
2018,07,07,15,56,19.10
2018,07,07,15,57,19.10
2018,07,07,15,58,19.10
2018,07,07,15,59,19.20
2018,07,07,16,00,19.20
2018,07,07,16,01,19.20
2018,07,07,16,02,19.20
2018,07,07,16,03,19.30
2018,07,07,16,04,19.30
2018,07,07,16,05,19.30
2018,07,07,16,06,19.30
2018,07,07,16,07,19.40
2018,07,07,16,08,19.40
2018,07,07,16,09,19.30
2018,07,07,16,10,19.40
2018,07,07,16,11,19.40
2018,07,07,16,12,19.40
2018,07,07,16,13,19.40
2018,07,07,16,14,19.50
2018,07,07,16,15,19.50
2018,07,07,16,16,19.60
2018,07,07,16,17,19.70
2018,07,07,16,18,19.80
2018,07,07,16,19,19.90
2018,07,07,16,20,19.90
2018,07,07,16,21,20.00
2018,07,07,16,22,20.00
2018,07,07,16,23,20.10
2018,07,07,16,24,20.20
2018,07,07,16,25,20.30
2018,07,07,16,26,20.30
2018,07,07,16,27,20.30
2018,07,07,16,28,20.30
2018,07,07,16,29,20.30
2018,07,07,16,30,20.20
2018,07,07,16,31,20.10
2018,07,07,16,32,20.00
2018,07,07,16,33,19.90
2018,07,07,16,34,19.90
2018,07,07,16,35,19.80
2018,07,07,16,36,19.80
2018,07,07,16,37,19.80
2018,07,07,16,38,19.80
2018,07,07,16,39,19.80
2018,07,07,16,40,19.80
2018,07,07,16,41,19.80
2018,07,07,16,42,19.80
2018,07,07,16,43,19.80
2018,07,07,16,44,19.80
2018,07,07,16,45,19.80
2018,07,07,16,46,19.80
2018,07,07,16,47,19.80
2018,07,07,16,48,19.80
2018,07,07,16,49,19.80
2018,07,07,16,50,19.90
2018,07,07,16,51,19.90
2018,07,07,16,52,19.90
2018,07,07,16,53,19.90
2018,07,07,16,54,19.90
2018,07,07,16,55,19.90
2018,07,07,16,56,19.90
2018,07,07,16,57,19.80
2018,07,07,16,58,19.80
2018,07,07,16,59,19.80
2018,07,07,17,00,19.80
2018,07,07,17,01,19.80
2018,07,07,17,02,19.80
2018,07,07,17,03,19.80
2018,07,07,17,04,19.80
2018,07,07,17,05,19.80
2018,07,07,17,06,19.80
2018,07,07,17,07,19.80
2018,07,07,17,08,19.80
2018,07,07,17,09,19.90
2018,07,07,17,10,19.90
2018,07,07,17,11,19.90
2018,07,07,17,12,20.00
2018,07,07,17,13,20.00
2018,07,07,17,14,19.90
2018,07,07,17,15,19.90
2018,07,07,17,16,19.90
2018,07,07,17,17,19.90
2018,07,07,17,18,19.90
2018,07,07,17,19,19.90
2018,07,07,17,20,19.80
2018,07,07,17,21,19.80
2018,07,07,17,22,19.70